| time (UTC) | temp F | wind direction | speed MPH | gust MPH | rain 1hr in | rain 24hr in | rain mn in | humidity % | barometer mb |
| 20260904223356 | 64 | 273 | 4.0 | 11.0 | 0.00 | 0.55 | 0.00 | 73 | 1016.4 |
| 20260904222337 | 64 | 292 | 4.0 | 11.0 | 0.00 | 0.55 | 0.00 | 73 | 1016.4 |
| 20260904221320 | 64 | 292 | 5.0 | 13.0 | 0.00 | 0.55 | 0.00 | 73 | 1016.3 |
| 20260904220326 | 64 | 294 | 5.0 | 13.0 | 0.00 | 0.55 | 0.00 | 72 | 1016.2 |
| 20260904215323 | 64 | 208 | 6.0 | 13.0 | 0.00 | 0.55 | 0.11 | 72 | 1016.2 |
| 20260904214325 | 64 | 288 | 5.0 | 12.0 | 0.00 | 0.55 | 0.11 | 73 | 1016.1 |
| 20260904213321 | 64 | 296 | 5.0 | 15.0 | 0.00 | 0.55 | 0.11 | 73 | 1016.1 |
| 20260904212321 | 64 | 282 | 5.0 | 12.0 | 0.00 | 0.55 | 0.11 | 73 | 1015.9 |
| 20260904211355 | 65 | 208 | 6.0 | 11.0 | 0.00 | 0.55 | 0.11 | 72 | 1015.9 |
| 20260904210332 | 65 | 292 | 4.0 | 9.0 | 0.00 | 0.55 | 0.11 | 71 | 1015.8 |
| 20260904205336 | 65 | 292 | 5.0 | 13.0 | 0.00 | 0.55 | 0.11 | 70 | 1015.8 |
| 20260904204326 | 65 | 208 | 7.0 | 15.0 | 0.00 | 0.55 | 0.11 | 70 | 1015.8 |
| 20260904203322 | 65 | 287 | 6.0 | 14.0 | 0.00 | 0.55 | 0.11 | 71 | 1015.7 |
| 20260904202340 | 65 | 185 | 6.0 | 12.0 | 0.00 | 0.55 | 0.11 | 72 | 1015.6 |
| 20260904201349 | 65 | 267 | 6.0 | 17.0 | 0.00 | 0.55 | 0.11 | 72 | 1015.6 |
| 20260904200324 | 65 | 280 | 7.0 | 13.0 | 0.00 | 0.55 | 0.11 | 72 | 1015.5 |
| 20260904195335 | 66 | 285 | 5.0 | 11.0 | 0.00 | 0.55 | 0.11 | 72 | 1015.4 |
| 20260904194338 | 66 | 277 | 7.0 | 14.0 | 0.00 | 0.55 | 0.11 | 71 | 1015.3 |
| 20260904193336 | 66 | 208 | 6.0 | 13.0 | 0.00 | 0.55 | 0.11 | 71 | 1015.2 |
| 20260904192345 | 66 | 290 | 5.0 | 15.0 | 0.00 | 0.55 | 0.11 | 70 | 1015.1 |
| 20260904191354 | 66 | 319 | 6.0 | 12.0 | 0.00 | 0.55 | 0.11 | 70 | 1014.9 |
| 20260904190331 | 66 | 306 | 7.0 | 15.0 | 0.00 | 0.55 | 0.11 | 70 | 1014.9 |
| 20260904185329 | 66 | 280 | 9.0 | 16.0 | 0.00 | 0.55 | 0.11 | 72 | 1014.6 |
| 20260904184325 | 66 | 288 | 7.0 | 12.0 | 0.00 | 0.55 | 0.11 | 73 | 1014.6 |
| 20260904183326 | 66 | 298 | 7.0 | 13.0 | 0.00 | 0.55 | 0.11 | 73 | 1014.5 |
| 20260904182327 | 66 | 267 | 8.0 | 14.0 | 0.00 | 0.55 | 0.11 | 73 | 1014.4 |
| 20260904181338 | 66 | 290 | 8.0 | 16.0 | 0.00 | 0.55 | 0.11 | 74 | 1014.2 |
| 20260904180349 | 66 | 208 | 6.0 | 14.0 | 0.00 | 0.55 | 0.11 | 74 | 1014.3 |
| 20260904175339 | 67 | 306 | 5.0 | 17.0 | 0.00 | 0.55 | 0.11 | 73 | 1014.3 |
| 20260904174353 | 67 | 288 | 8.0 | 15.0 | 0.00 | 0.55 | 0.11 | 73 | 1014.2 |
| 20260904173338 | 67 | 274 | 7.0 | 19.0 | 0.00 | 0.55 | 0.11 | 72 | 1014.0 |
| 20260904172328 | 67 | 208 | 11.0 | 18.0 | 0.00 | 0.55 | 0.11 | 71 | 1013.8 |
| 20260904171344 | 67 | 256 | 9.0 | 15.0 | 0.00 | 0.55 | 0.11 | 71 | 1013.7 |
| 20260904170329 | 67 | 282 | 11.0 | 20.0 | 0.00 | 0.55 | 0.11 | 71 | 1013.8 |
| 20260904165323 | 67 | 208 | 9.0 | 18.0 | 0.00 | 0.55 | 0.11 | 71 | 1013.7 |
| 20260904164346 | 67 | 278 | 9.0 | 16.0 | 0.00 | 0.55 | 0.11 | 72 | 1013.4 |
| 20260904163328 | 67 | 208 | 8.0 | 23.0 | 0.00 | 0.55 | 0.11 | 73 | 1013.3 |
| 20260904162354 | 68 | 208 | 10.0 | 20.0 | 0.00 | 0.55 | 0.11 | 76 | 1013.1 |
| 20260904161337 | 68 | 287 | 10.0 | 19.0 | 0.00 | 0.55 | 0.11 | 77 | 1013.0 |
| 20260904160336 | 68 | 300 | 7.0 | 16.0 | 0.00 | 0.55 | 0.11 | 77 | 1013.0 |
| 20260904155338 | 68 | 267 | 8.0 | 15.0 | 0.00 | 0.55 | 0.11 | 76 | 1013.0 |
| 20260904154412 | 68 | 297 | 8.0 | 19.0 | 0.00 | 0.55 | 0.11 | 77 | 1013.0 |
| 20260904153328 | 68 | 300 | 10.0 | 17.0 | 0.00 | 0.55 | 0.11 | 77 | 1013.0 |
| 20260904090335 | 71 | 208 | 8.0 | 20.0 | 0.00 | 0.04 | 0.00 | 86 | 1010.8 |
| 20260904085337 | 71 | 169 | 5.0 | 21.0 | 0.00 | 0.04 | 0.00 | 86 | 1010.7 |
| 20260904084325 | 71 | 271 | 8.0 | 19.0 | 0.00 | 0.04 | 0.00 | 86 | 1010.6 |
| 20260904083342 | 70 | 208 | 9.0 | 19.0 | 0.00 | 0.04 | 0.00 | 86 | 1010.6 |
| 20260904082351 | 70 | 225 | 9.0 | 22.0 | 0.00 | 0.04 | 0.00 | 86 | 1010.6 |
| 20260904081350 | 70 | 197 | 11.0 | 18.0 | 0.00 | 0.04 | 0.00 | 86 | 1010.7 |
| 20260904080321 | 70 | 208 | 10.0 | 16.0 | 0.00 | 0.04 | 0.00 | 87 | 1010.6 |
| 20260904075335 | 70 | 252 | 6.0 | 19.0 | 0.00 | 0.04 | 0.00 | 87 | 1010.7 |
| 20260904074344 | 70 | 246 | 5.0 | 24.0 | 0.00 | 0.04 | 0.00 | 87 | 1010.7 |
| 20260904073323 | 70 | 286 | 9.0 | 16.0 | 0.00 | 0.04 | 0.00 | 87 | 1010.7 |
| 20260904072338 | 70 | 208 | 9.0 | 17.0 | 0.00 | 0.04 | 0.00 | 87 | 1010.9 |
| 20260904071335 | 70 | 228 | 8.0 | 22.0 | 0.00 | 0.04 | 0.00 | 87 | 1010.9 |
| 20260904070327 | 70 | 198 | 8.0 | 17.0 | 0.00 | 0.04 | 0.00 | 88 | 1010.7 |
| 20260904065321 | 70 | 275 | 9.0 | 15.0 | 0.00 | 0.20 | 0.00 | 87 | 1010.7 |
| 20260904064336 | 70 | 213 | 9.0 | 15.0 | 0.00 | 0.20 | 0.00 | 87 | 1010.7 |
| 20260904063333 | 70 | 175 | 8.0 | 17.0 | 0.00 | 0.20 | 0.00 | 87 | 1010.8 |
| 20260904062326 | 70 | 239 | 9.0 | 18.0 | 0.00 | 0.20 | 0.00 | 87 | 1011.0 |
| 20260904061320 | 69 | 194 | 9.0 | 15.0 | 0.00 | 0.20 | 0.00 | 88 | 1011.1 |
| 20260904060335 | 69 | 246 | 6.0 | 16.0 | 0.00 | 0.20 | 0.00 | 87 | 1011.2 |
| 20260904055335 | 69 | 213 | 7.0 | 13.0 | 0.00 | 0.35 | 0.00 | 88 | 1011.2 |
| 20260904054322 | 69 | 208 | 7.0 | 14.0 | 0.00 | 0.35 | 0.00 | 88 | 1011.3 |
| 20260904053334 | 69 | 180 | 9.0 | 16.0 | 0.00 | 0.35 | 0.00 | 88 | 1011.3 |
| 20260904052321 | 69 | 157 | 6.0 | 17.0 | 0.00 | 0.35 | 0.00 | 88 | 1011.6 |
| 20260904051328 | 69 | 241 | 6.0 | 15.0 | 0.00 | 0.35 | 0.00 | 88 | 1011.6 |
| 20260904050323 | 69 | 221 | 7.0 | 14.0 | 0.00 | 0.35 | 0.00 | 88 | 1011.8 |
| 20260904045327 | 69 | 250 | 7.0 | 13.0 | 0.00 | 0.35 | 0.00 | 88 | 1012.1 |
| 20260904044324 | 69 | 244 | 7.0 | 18.0 | 0.00 | 0.35 | 0.00 | 88 | 1012.3 |
| 20260904043338 | 69 | 213 | 7.0 | 17.0 | 0.00 | 0.35 | 0.00 | 88 | 1012.3 |
| 20260904042331 | 69 | 218 | 6.0 | 14.0 | 0.00 | 0.35 | 0.00 | 88 | 1012.5 |
| 20260904041323 | 69 | 253 | 7.0 | 17.0 | 0.00 | 0.35 | 0.00 | 88 | 1012.6 |
| 20260904040335 | 69 | 267 | 7.0 | 13.0 | 0.00 | 0.35 | 0.00 | 88 | 1012.6 |
| 20260904035336 | 69 | 229 | 7.0 | 13.0 | 0.00 | 0.35 | 0.00 | 88 | 1012.9 |
| 20260904034347 | 69 | 223 | 4.0 | 13.0 | 0.00 | 0.35 | 0.00 | 87 | 1012.9 |
| 20260904033344 | 69 | 213 | 7.0 | 14.0 | 0.00 | 0.35 | 0.00 | 87 | 1012.9 |
| 20260904032400 | 69 | 203 | 6.0 | 17.0 | 0.00 | 0.35 | 0.00 | 87 | 1012.9 |
| 20260904031323 | 69 | 230 | 7.0 | 13.0 | 0.00 | 0.35 | 0.00 | 87 | 1013.0 |
| 20260904030322 | 69 | 192 | 5.0 | 11.0 | 0.00 | 0.35 | 0.00 | 88 | 1013.1 |
| 20260904025400 | 69 | 192 | 6.0 | 12.0 | 0.00 | 0.35 | 0.00 | 88 | 1013.1 |
| 20260904024319 | 69 | 230 | 5.0 | 13.0 | 0.00 | 0.35 | 0.00 | 88 | 1013.3 |
| 20260904023325 | 69 | 273 | 5.0 | 14.0 | 0.00 | 0.35 | 0.00 | 88 | 1013.4 |
| 20260904022340 | 69 | 249 | 6.0 | 10.0 | 0.00 | 0.35 | 0.00 | 88 | 1013.5 |
| 20260904021349 | 69 | 230 | 6.0 | 12.0 | 0.00 | 0.35 | 0.00 | 88 | 1013.5 |
| 20260904020351 | 69 | 235 | 4.0 | 13.0 | 0.00 | 0.35 | 0.00 | 88 | 1013.7 |
| 20260904015344 | 69 | 250 | 8.0 | 15.0 | 0.00 | 0.35 | 0.00 | 88 | 1013.8 |
| 20260904014354 | 69 | 191 | 6.0 | 13.0 | 0.00 | 0.35 | 0.00 | 88 | 1014.0 |
| 20260904013349 | 69 | 236 | 7.0 | 14.0 | 0.00 | 0.35 | 0.00 | 88 | 1014.0 |
| 20260904012329 | 69 | 230 | 5.0 | 13.0 | 0.00 | 0.35 | 0.00 | 88 | 1014.1 |
| 20260904011327 | 69 | 208 | 7.0 | 16.0 | 0.00 | 0.35 | 0.00 | 89 | 1014.1 |
| 20260904010337 | 69 | 244 | 4.0 | 14.0 | 0.00 | 0.35 | 0.00 | 89 | 1014.4 |
| 20260904005333 | 69 | 219 | 7.0 | 13.0 | 0.00 | 0.35 | 0.00 | 88 | 1014.6 |
| 20260904004326 | 69 | 243 | 6.0 | 14.0 | 0.00 | 0.35 | 0.00 | 88 | 1014.6 |
| 20260904003330 | 69 | 213 | 5.0 | 11.0 | 0.00 | 0.35 | 0.00 | 88 | 1014.7 |
| 20260904002351 | 69 | 213 | 6.0 | 17.0 | 0.00 | 0.35 | 0.00 | 88 | 1014.8 |
| 20260904001323 | 69 | 246 | 4.0 | 12.0 | 0.00 | 0.35 | 0.00 | 88 | 1014.9 |
| 20260904000337 | 69 | 196 | 6.0 | 17.0 | 0.00 | 0.35 | 0.00 | 88 | 1015.0 |
| 20260903235325 | 69 | 225 | 6.0 | 17.0 | 0.00 | 0.35 | 0.00 | 88 | 1015.0 |
| 20260903234335 | 69 | 231 | 5.0 | 11.0 | 0.00 | 0.35 | 0.00 | 88 | 1015.1 |
| 20260903233323 | 69 | 274 | 6.0 | 14.0 | 0.00 | 0.35 | 0.00 | 88 | 1015.2 |
| 20260903232334 | 69 | 220 | 3.0 | 11.0 | 0.00 | 0.35 | 0.00 | 88 | 1015.2 |
| 20260903231329 | 69 | 203 | 5.0 | 11.0 | 0.00 | 0.35 | 0.00 | 88 | 1015.3 |
| 20260903230322 | 69 | 213 | 5.0 | 12.0 | 0.00 | 0.35 | 0.00 | 88 | 1015.5 |
| 20260903225336 | 69 | 306 | 4.0 | 15.0 | 0.00 | 0.35 | 0.00 | 88 | 1015.6 |
| 20260903224325 | 69 | 290 | 4.0 | 10.0 | 0.00 | 0.35 | 0.00 | 89 | 1015.6 |